TimeEDT,TemperatureF,Dew PointF,Humidity,Sea Level PressureIn,VisibilityMPH,Wind Direction,Wind SpeedMPH,Gust SpeedMPH,PrecipitationIn,Events,Conditions,WindDirDegrees,DateUTC
12:14 AM,41.5,36.0,81,29.71,10.0,West,5.8,-,N/A,Rain,Rain,270,2012-10-10 04:14:00
12:35 AM,41.0,34.9,79,29.71,7.0,West,6.9,-,N/A,Rain,Rain,270,2012-10-10 04:35:00
12:55 AM,41.0,34.9,79,29.71,7.0,West,6.9,-,N/A,Rain,Rain,270,2012-10-10 04:55:00
1:14 AM,41.0,35.6,81,29.70,7.0,WNW,4.6,-,N/A,Rain,Light Rain,290,2012-10-10 05:14:00
1:35 AM,41.5,36.5,82,29.70,10.0,SW,5.8,-,N/A,Rain,Rain,230,2012-10-10 05:35:00
1:55 AM,42.1,35.8,78,29.70,10.0,NW,5.8,-,N/A,Rain,Rain,310,2012-10-10 05:55:00
2:14 AM,41.7,34.9,77,29.69,10.0,Calm,Calm,-,N/A,Rain,Light Rain,0,2012-10-10 06:14:00
2:35 AM,41.0,36.7,85,29.69,10.0,Calm,Calm,-,N/A,Rain,Light Rain,0,2012-10-10 06:35:00
2:55 AM,40.3,36.7,87,29.69,10.0,NNE,3.5,-,N/A,Rain,Light Rain,20,2012-10-10 06:55:00
3:15 AM,41.0,37.2,86,29.68,10.0,NNW,3.5,-,N/A,,Overcast,340,2012-10-10 07:15:00
3:35 AM,41.5,35.6,79,29.68,10.0,WNW,8.1,-,N/A,,Overcast,290,2012-10-10 07:35:00
3:55 AM,42.1,35.1,76,29.68,10.0,WNW,5.8,-,N/A,,Overcast,300,2012-10-10 07:55:00
4:15 AM,42.1,35.1,76,29.68,10.0,West,6.9,-,N/A,,Overcast,280,2012-10-10 08:15:00
4:35 AM,41.5,34.0,75,29.69,10.0,West,9.2,16.1,N/A,,Scattered Clouds,280,2012-10-10 08:35:00
4:55 AM,41.0,33.3,74,29.69,10.0,WNW,8.1,-,N/A,,Clear,290,2012-10-10 08:55:00
5:15 AM,41.0,33.4,74,29.69,10.0,WNW,10.4,-,N/A,,Scattered Clouds,290,2012-10-10 09:15:00
5:35 AM,41.5,34.0,75,29.69,10.0,WNW,10.4,17.3,N/A,,Mostly Cloudy,290,2012-10-10 09:35:00
5:55 AM,41.0,32.9,73,29.70,10.0,WNW,9.2,-,N/A,,Scattered Clouds,290,2012-10-10 09:55:00
6:15 AM,41.0,32.4,71,29.71,10.0,WNW,10.4,16.1,N/A,,Scattered Clouds,290,2012-10-10 10:15:00
6:35 AM,41.0,32.2,71,29.71,10.0,WNW,11.5,-,N/A,,Scattered Clouds,290,2012-10-10 10:35:00
6:55 AM,41.0,32.2,71,29.72,10.0,WNW,8.1,16.1,N/A,,Mostly Cloudy,290,2012-10-10 10:55:00
7:15 AM,41.0,32.0,70,29.73,10.0,West,9.2,-,N/A,,Overcast,280,2012-10-10 11:15:00
7:35 AM,41.0,31.5,69,29.73,10.0,WNW,11.5,20.7,N/A,,Mostly Cloudy,290,2012-10-10 11:35:00
7:55 AM,40.5,30.9,69,29.73,10.0,WNW,12.7,18.4,N/A,,Mostly Cloudy,290,2012-10-10 11:55:00
8:15 AM,41.0,30.9,67,29.74,10.0,WNW,10.4,16.1,N/A,,Overcast,290,2012-10-10 12:15:00
8:54 AM,41.0,30.7,67,29.75,10.0,WNW,9.2,17.3,N/A,,Overcast,290,2012-10-10 12:54:00
9:34 AM,41.0,31.1,68,29.76,10.0,West,9.2,17.3,N/A,,Overcast,280,2012-10-10 13:34:00
9:55 AM,41.0,31.1,68,29.77,10.0,West,10.4,16.1,N/A,,Overcast,280,2012-10-10 13:55:00
10:15 AM,41.0,32.2,71,29.78,7.0,West,11.5,20.7,N/A,Rain,Rain,280,2012-10-10 14:15:00
10:34 AM,41.0,32.2,71,29.78,10.0,WNW,16.1,23.0,N/A,,Overcast,290,2012-10-10 14:34:00
10:55 AM,42.1,32.0,67,29.78,10.0,WNW,12.7,19.6,N/A,,Overcast,290,2012-10-10 14:55:00
11:15 AM,42.4,32.2,67,29.79,10.0,West,11.5,20.7,N/A,,Overcast,270,2012-10-10 15:15:00
11:34 AM,41.4,32.5,71,29.79,7.0,WNW,11.5,19.6,N/A,Rain,Light Rain,290,2012-10-10 15:34:00
11:55 AM,42.1,32.4,68,29.80,10.0,West,10.4,19.6,N/A,,Overcast,270,2012-10-10 15:55:00
12:15 PM,42.3,32.0,67,29.80,10.0,West,10.4,21.9,N/A,,Overcast,270,2012-10-10 16:15:00
12:55 PM,43.5,32.7,66,29.81,10.0,West,12.7,20.7,N/A,,Overcast,280,2012-10-10 16:55:00
1:14 PM,45.9,34.0,63,29.82,10.0,West,17.3,24.2,N/A,,Overcast,280,2012-10-10 17:14:00
1:35 PM,42.4,32.7,68,29.82,10.0,West,12.7,19.6,N/A,Rain,Light Rain,280,2012-10-10 17:35:00
1:55 PM,41.0,33.8,76,29.82,7.0,West,11.5,18.4,N/A,Rain,Rain,270,2012-10-10 17:55:00
2:14 PM,41.9,33.3,71,29.83,7.0,West,15.0,21.9,N/A,Rain,Rain,270,2012-10-10 18:14:00
2:35 PM,41.5,33.4,73,29.83,10.0,West,10.4,21.9,N/A,Rain,Light Rain,280,2012-10-10 18:35:00
2:55 PM,42.1,33.1,70,29.84,10.0,NW,13.8,19.6,N/A,Rain,Light Rain,310,2012-10-10 18:55:00
3:15 PM,41.5,33.1,72,29.84,10.0,West,9.2,21.9,N/A,,Drizzle,270,2012-10-10 19:15:00
3:35 PM,41.0,32.5,72,29.86,5.0,WNW,9.2,23.0,N/A,Rain,Rain,300,2012-10-10 19:35:00
3:55 PM,41.0,33.3,74,29.86,10.0,WNW,8.1,-,N/A,,Overcast,290,2012-10-10 19:55:00
4:15 PM,38.3,32.5,80,29.88,1.8,NW,13.8,19.6,N/A,Rain,Rain,310,2012-10-10 20:15:00
4:35 PM,39.4,33.3,79,29.87,10.0,NW,9.2,18.4,N/A,,Light Drizzle,320,2012-10-10 20:35:00
4:55 PM,39.6,33.8,80,29.88,7.0,NW,10.4,-,N/A,Rain,Rain,310,2012-10-10 20:55:00
5:15 PM,39.0,33.6,81,29.88,7.0,NW,8.1,18.4,N/A,Rain,Rain,320,2012-10-10 21:15:00
5:35 PM,38.5,33.1,81,29.89,10.0,NW,9.2,21.9,N/A,Rain,Light Rain,310,2012-10-10 21:35:00
5:55 PM,38.3,32.9,81,29.89,10.0,NW,8.1,-,N/A,,Overcast,310,2012-10-10 21:55:00
6:15 PM,38.3,32.4,79,29.90,10.0,WNW,6.9,-,N/A,Rain,Light Rain,300,2012-10-10 22:15:00
6:35 PM,39.6,32.0,74,29.91,10.0,WNW,8.1,18.4,N/A,,Overcast,300,2012-10-10 22:35:00
6:55 PM,39.6,29.5,67,29.93,10.0,WNW,13.8,19.6,N/A,,Overcast,300,2012-10-10 22:55:00
7:15 PM,39.6,28.2,64,29.94,10.0,West,10.4,-,N/A,,Overcast,270,2012-10-10 23:15:00
7:35 PM,39.6,28.2,64,29.94,10.0,West,8.1,-,N/A,,Unknown,280,2012-10-10 23:35:00
7:55 PM,40.3,26.2,57,29.96,10.0,WNW,9.2,20.7,N/A,,Overcast,290,2012-10-10 23:55:00
8:15 PM,41.0,25.7,55,29.96,10.0,West,12.7,19.6,N/A,,Overcast,280,2012-10-11 00:15:00
8:35 PM,40.3,25.3,55,29.97,10.0,West,12.7,23.0,N/A,,Mostly Cloudy,280,2012-10-11 00:35:00
8:55 PM,40.5,24.3,52,29.98,10.0,West,10.4,19.6,N/A,,Overcast,280,2012-10-11 00:55:00
9:15 PM,39.6,22.8,51,29.99,10.0,WNW,11.5,21.9,N/A,,Overcast,290,2012-10-11 01:15:00
9:35 PM,39.6,21.6,49,29.99,10.0,West,12.7,21.9,N/A,,Mostly Cloudy,280,2012-10-11 01:35:00
9:55 PM,38.5,21.4,50,30.01,10.0,West,11.5,17.3,N/A,,Scattered Clouds,270,2012-10-11 01:55:00
10:15 PM,38.3,21.6,51,30.01,10.0,West,6.9,-,N/A,,Clear,270,2012-10-11 02:15:00
10:35 PM,38.3,21.7,51,30.01,10.0,West,9.2,-,N/A,,Scattered Clouds,280,2012-10-11 02:35:00
10:55 PM,39.6,21.2,48,30.01,10.0,West,8.1,-,N/A,,Overcast,280,2012-10-11 02:55:00
11:15 PM,41.0,21.4,46,30.01,10.0,West,8.1,16.1,N/A,,Overcast,280,2012-10-11 03:15:00
11:35 PM,41.0,21.4,46,30.01,10.0,West,9.2,-,N/A,,Overcast,280,2012-10-11 03:35:00
11:55 PM,41.0,19.8,43,30.01,10.0,West,9.2,19.6,N/A,,Overcast,280,2012-10-11 03:55:00